Date String (YYYY-MM-DD hh:mm:ss) UTC,Instrument flags,Ambient pressure (hPa),Sample flow (lpm),Bypass flow (lpm),Sample temperature (°C),Ambient temperature (°C),ASC tube jacket temperature (°C),LED temperature (°C),Box temperature (°C),Sample RH (%),Span deviation,Mass concentration (μg/m³),Mass concentration (μg/m³),Mass concentration (μg/m³)
DateTimeUTC,F1_M11,P_M11,Q1_M11,Q2_M11,T1_M11,T2_M11,T3_M11,T4_M11,T5_M11,U1_M11,ZSPAN_M11,X0_M11,X2_M11,X1_M11
2021-09-02 19:00:00,,0826.1,5.01,0.00,29.3,26.3,00.0,38.5,30.9,32.7,0001.9,0019.26,0012.01,0011.38
2021-09-02 19:01:00,,0826.0,5.00,0.00,29.3,26.8,00.0,38.5,31.0,32.8,0002.1,0018.70,0012.04,0011.38
2021-09-02 19:02:00,,0826.0,4.99,0.00,29.3,27.2,00.0,38.4,31.0,32.7,0002.2,0017.47,0012.02,0011.37
2021-09-02 19:03:00,,0826.0,5.00,0.00,29.3,27.6,00.0,38.4,31.1,32.5,0002.1,0017.32,0012.09,0011.42
2021-09-02 19:04:00,,0826.0,5.00,0.00,29.3,27.9,00.0,38.4,31.2,32.6,0002.1,0016.93,0012.12,0011.47
2021-09-02 19:05:00,,0826.0,5.01,0.00,29.4,28.1,00.0,38.4,31.2,32.6,0002.1,0016.04,0012.14,0011.49
2021-09-02 19:06:00,,0826.0,5.00,0.00,29.4,28.3,00.0,38.4,31.3,32.7,0001.8,0016.21,0012.20,0011.51
2021-09-02 19:07:00,,0826.0,4.99,0.00,29.5,28.5,00.0,38.5,31.3,32.6,0001.6,0016.26,0012.20,0011.51
2021-09-02 19:08:00,,0826.0,4.99,0.00,29.5,28.6,00.0,38.5,31.4,32.5,0001.5,0016.51,0012.21,0011.53
2021-09-02 19:09:00,,0825.9,5.01,0.00,29.6,28.7,00.0,38.5,31.5,32.7,0001.6,0016.56,0012.21,0011.54
2021-09-02 19:10:00,,0826.0,4.99,0.00,29.6,28.8,00.0,38.5,31.5,32.5,0001.4,0016.53,0012.21,0011.57
2021-09-02 19:11:00,,0825.9,5.00,0.00,29.6,28.0,00.0,38.6,31.3,32.7,0001.4,0015.96,0012.23,0011.61
2021-09-02 19:12:00,,0825.9,5.01,0.00,29.5,26.4,00.0,38.5,30.9,32.2,0001.3,0016.90,0012.32,0011.68
2021-09-02 19:13:00,,0826.0,5.00,0.00,29.4,25.8,00.0,38.5,30.7,32.4,0001.3,0017.55,0012.46,0011.76
2021-09-02 19:14:00,,0825.9,5.01,0.00,29.3,26.1,00.0,38.5,30.8,32.7,0001.3,0017.72,0012.48,0011.76
2021-09-02 19:15:00,,0825.9,4.99,0.00,29.2,26.5,00.0,38.4,30.8,33.1,0000.9,0018.36,0012.53,0011.77
2021-09-02 19:16:00,,0826.0,5.00,0.00,29.2,27.0,00.0,38.4,30.9,33.2,0000.8,0018.59,0012.59,0011.80
2021-09-02 19:17:00,,0825.9,4.99,0.00,29.3,27.4,00.0,38.4,31.0,33.6,0001.1,0018.60,0012.63,0011.85
2021-09-02 19:18:00,,0826.0,5.00,0.00,29.3,27.7,00.0,38.4,31.1,33.2,0001.2,0018.88,0012.70,0011.89
2021-09-02 19:19:00,,0825.9,5.01,0.00,29.3,28.0,00.0,38.4,31.2,33.1,0001.1,0018.90,0012.80,0011.95
2021-09-02 19:20:00,,0825.9,4.99,0.00,29.4,28.2,00.0,38.4,31.2,33.1,0000.8,0018.86,0012.82,0011.98
2021-09-02 19:21:00,,0826.0,5.01,0.00,29.4,28.4,00.0,38.4,31.3,33.3,0000.8,0018.84,0012.82,0011.99
2021-09-02 19:22:00,,0826.0,5.00,0.00,29.5,28.5,00.0,38.4,31.3,33.1,0000.8,0018.93,0012.83,0012.00
2021-09-02 19:23:00,,0825.9,4.99,0.00,29.5,28.6,00.0,38.5,31.4,32.6,0000.7,0018.12,0012.78,0012.00
2021-09-02 19:24:00,,0825.9,5.00,0.00,29.6,28.7,00.0,38.5,31.5,32.2,0000.6,0017.39,0012.73,0011.98
2021-09-02 19:25:00,,0825.9,5.00,0.00,29.6,28.6,00.0,38.5,31.4,32.1,0000.5,0017.40,0012.71,0011.96
2021-09-02 19:26:00,,0825.9,5.00,0.00,29.5,27.0,00.0,38.5,31.0,32.4,0000.7,0016.71,0012.65,0011.96
2021-09-02 19:27:00,,0825.8,5.00,0.00,29.4,25.9,00.0,38.5,30.7,32.7,0000.7,0016.89,0012.67,0011.95
2021-09-02 19:28:00,,0825.9,5.00,0.00,29.3,25.9,00.0,38.5,30.7,33.1,0000.5,0016.93,0012.63,0011.91
2021-09-02 19:29:00,,0825.9,4.99,0.00,29.2,26.4,00.0,38.4,30.7,32.7,0000.5,0017.35,0012.60,0011.90
2021-09-02 19:30:00,,0825.9,5.00,0.00,29.2,26.8,00.0,38.4,30.8,33.0,0000.7,0017.07,0012.52,0011.86
2021-09-02 19:31:00,,0825.9,5.01,0.00,29.2,27.2,00.0,38.4,30.9,32.5,0000.8,0017.66,0012.54,0011.83
2021-09-02 19:32:00,,0825.9,4.99,0.00,29.2,27.6,00.0,38.4,31.0,32.8,0000.7,0018.16,0012.56,0011.84
2021-09-02 19:33:00,,0825.9,5.01,0.00,29.3,27.9,00.0,38.4,31.1,32.3,0000.8,0018.63,0012.55,0011.82
2021-09-02 19:34:00,,0825.9,5.00,0.00,29.3,28.1,00.0,38.4,31.2,32.4,0001.1,0018.77,0012.54,0011.79
2021-09-02 19:35:00,,0825.9,5.00,0.00,29.4,28.3,00.0,38.4,31.3,32.3,0001.1,0018.74,0012.56,0011.79
2021-09-02 19:36:00,,0825.9,5.00,0.00,29.4,28.5,00.0,38.4,31.3,32.5,0001.1,0018.50,0012.54,0011.80
2021-09-02 19:37:00,,0825.9,4.99,0.00,29.5,28.6,00.0,38.4,31.4,32.2,0001.4,0018.62,0012.56,0011.79
2021-09-02 19:38:00,,0825.9,5.00,0.00,29.5,28.7,00.0,38.5,31.4,31.9,0001.4,0018.28,0012.48,0011.79
2021-09-02 19:39:00,,0826.0,5.02,0.00,29.6,28.4,00.0,38.5,31.3,32.0,0001.2,0018.05,0012.43,0011.77
2021-09-02 19:40:00,,0825.9,5.00,0.00,29.5,26.8,00.0,38.5,30.9,32.4,0001.1,0017.44,0012.40,0011.76
2021-09-02 19:41:00,,0825.9,5.00,0.00,29.3,25.8,00.0,38.5,30.7,32.6,0001.0,0017.42,0012.36,0011.73
2021-09-02 19:42:00,,0825.9,5.00,0.00,29.2,25.9,00.0,38.4,30.7,32.6,0000.9,0017.09,0012.34,0011.71
2021-09-02 19:43:00,,0825.8,5.01,0.00,29.2,26.4,00.0,38.4,30.7,32.4,0001.1,0016.70,0012.34,0011.71
2021-09-02 19:44:00,,0825.8,4.98,0.00,29.2,26.9,00.0,38.4,30.8,32.1,0001.0,0016.21,0012.32,0011.70
2021-09-02 19:45:00,,0825.8,5.01,0.00,29.2,27.3,00.0,38.3,30.9,32.4,0001.0,0016.22,0012.32,0011.67
2021-09-02 19:46:00,,0825.8,5.00,0.00,29.2,27.6,00.0,38.3,31.0,32.0,0001.2,0016.21,0012.27,0011.61
2021-09-02 19:47:00,,0825.8,5.00,0.00,29.3,27.9,00.0,38.3,31.1,31.9,0001.2,0016.16,0012.20,0011.54
2021-09-02 19:48:00,,0825.8,5.01,0.00,29.3,28.1,00.0,38.3,31.2,31.7,0000.8,0016.07,0012.11,0011.49
2021-09-02 19:49:00,,0825.8,4.99,0.00,29.4,28.3,00.0,38.4,31.2,31.8,0000.8,0016.13,0012.04,0011.41
2021-09-02 19:50:00,,0825.9,5.01,0.00,29.4,28.5,00.0,38.4,31.3,31.9,0001.1,0016.18,0012.02,0011.38
2021-09-02 19:51:00,,0825.9,5.00,0.00,29.5,28.6,00.0,38.4,31.4,31.5,0001.2,0016.47,0011.99,0011.36
2021-09-02 19:52:00,,0825.9,5.01,0.00,29.5,28.7,00.0,38.4,31.4,31.6,0001.4,0017.52,0011.96,0011.34
2021-09-02 19:53:00,,0825.9,5.02,0.00,29.6,28.8,00.0,38.5,31.5,31.8,0001.5,0017.25,0011.93,0011.35
2021-09-02 19:54:00,,0825.9,5.00,0.00,29.6,28.4,00.0,38.5,31.4,32.0,0001.5,0017.16,0011.92,0011.34
2021-09-02 19:55:00,,0826.0,4.99,0.00,29.5,26.8,00.0,38.5,31.0,32.3,0001.6,0017.42,0011.94,0011.37
2021-09-02 19:56:00,,0825.9,5.01,0.00,29.4,25.9,00.0,38.5,30.7,32.7,0001.3,0017.82,0011.94,0011.40
2021-09-02 19:57:00,,0825.9,5.01,0.00,29.3,26.1,00.0,38.5,30.8,32.5,0001.3,0018.20,0011.98,0011.45
2021-09-02 19:58:00,,0826.0,5.00,0.00,29.2,26.5,00.0,38.4,30.8,32.5,0001.3,0018.48,0012.05,0011.52
2021-09-02 19:59:00,,0825.9,5.00,0.00,29.2,27.0,00.0,38.4,30.9,32.2,0001.4,0018.65,0012.09,0011.57
